OBJECT F, 62614

Orbit data source: Space-Track

You're viewing an Uncataloged Satellite

Recently launched and/or uncataloged satellites may have evolving metadata. Metadata may include but not limited to: Owner, Maufacturer, Bus, Motor, and Mission.

OBJECT F, 62614 is a satellite in SSO that was launched on Tue, 14 Jan 2025 UTC via an FALCON 9 launch vehicle from the Air Force Western Test Range (AFWTR). Unknown objects in Earth's orbit typically refer to objects detected orbiting the Earth but have not yet been identified or cataloged. These objects could be anything from previously untracked satellites, spent rocket stages, debris from satellite collisions, or even natural meteoroids temporarily captured by Earth's gravity.

Not visible in the next 10 days
Identifier
62614, 2025-009F
Orbit
SSO
Country
Flag of TBDTBD
Related business
None
Manufacturer
Unknown
Mission
Operational Amateur Technology
Bus & Motor
Unknown
Mass
Unknown
Launch date (UTC)
2025-01-14 (1 year ago)
Launch vehicle
FALCON 9
Launch site
Air Force Western Test Range (AFWTR)
Object type
Unknown
Shape & HBR
Box, 0.3 m
Radar Cross Section
0.015 m², Medium (>0.1 m² and < 1m²)

Expand to show TLE details & history
Last TLE update: 17 hours ago

TLE from 17 hours ago
0 OBJECT F
1 62614U 25009F   26034.50524663  .00144549  00000-0  18226-2 0  9999
2 62614  97.3970 123.0773 0001564  15.0891 345.0411 15.59108514 58896
Epoch: 2026-02-03T12:07Z
TLE epoch observation values (Epoch: 2026-02-03T12:07:33.308Z)
Latitude
-0.00011°
Longitude
167.50331°
Altitude
392.356 km
Speed
7.675 km/s
True Right ascension
08h 12m 18s
True Declination
0° 00' 00"
Sunlit
Object was in full shadow at epoch
Visualization orbit readout
Latitude
Unknown
Longitude
Unknown
Altitude
Unknown
Speed
Unknown
Apparent Right ascension
Unknown
Apparent Declination
Unknown
Sunlit
N/A
Visualization observer readout
Local Sidereal Time
07:10:35
Azimuth
Unknown
Elevation
Unknown
Doppler factor
Unknown
Orbital elements
Apogee altitude
388.208 km
Perigee altitude
386.091 km
Semi-major axis
6,765.286 km
Eccentricity
0.00016
Inclination
97.397°
RAAN
123.0773°
Arg. of periapsis
15.0891°
True anomaly
345.03647°
Mean anomaly
345.0411°
Eccentric anomaly
345.03879°
Mean motion
3.90044 °/min
Orbital period
92.3 mins
BSTAR
0.0018226
Loading maneuver chart data...
Computing Atmospheric mass density...
Loading historical data...
Loading historical data...
Loading historical data...
Loading historical data...
Loading historical data...
Loading historical data...
Loading historical data...

Documentation

Showing up to 5 results
|